Location: ??
(35.4627°N, 139.3695°E)
Time: 05:23:49
(UTC+00:00)

Genesis I - Pass Details

Date: 25 November 2020
Orbit: 494 x 527 km, 64.5° (Epoch: 20 January)

Event Time Altitude Azimuth Distance (km) Brightness Sun altitude
Rises 20:41:58 0° 216° (SW) 2,561 6.6 -9.6°
Reaches altitude 10° 20:44:07 10° 220° (SW) 1,686 5.6 -9.2°
Maximum altitude 20:47:50 61° 301° (WNW) 568 3.1 -8.5°
Drops below altitude 10° 20:51:37 10° 23° (NNE) 1,711 5.9 -7.8°
Sets 20:53:49 0° 27° (NNE) 2,604 6.9 -7.3°
